Showing default

YAOGAN-31 A, 43275

Orbit data source: Space-Track

YAOGAN-31 A, 43275 is a payload satellite owned by PLA SSF (CN) in LEO that was launched on Tue, 10 Apr 2018 UTC via a CHANG ZHENG 4C launch vehicle from the Jiuquan Satellite Launch Center, China (JSC). Payload-class satellites include a variety of spacecraft equipped with specific instruments for various scientific and technological missions. These include communications satellites like Starlink; space stations such as the ISS; scientific satellites like the Hubble; Earth observation satellites from companies like Planet Labs, Umbra, and HawkEye 360; GPS; miniature CubeSats for education and research; and military/defense satellites.

Loading next visibility...
Identifier
43275, 2018-034A
Orbit
LEO
Country
Flag of CNCN / PRC
Related business
Manufacturer
DFH
Mission
Operational Defense Sigint
Bus & Motor
JB-8B, Unknown motor
Mass
~500 kg wet, ~500 kg dry
Launch date (UTC)
2018-04-10 (8 years ago)
Launch vehicle
CHANG ZHENG 4C
Launch site
Jiuquan Satellite Launch Center, China (JSC)
Object type
Payload
Rocket body
Debris
Shape & HBR
Box + 2 Pan, 0.5 m
Radar Cross Section
0.446 m², Large (>1 m²)

Expand to show TLE details & history
Last TLE update: 4 hours ago

TLE from 4 hours ago
0 YAOGAN-31 A
1 43275U 18034A   26125.84705112  .00000049  00000-0  18841-3 0  9999
2 43275  63.3948 200.2236 0271649   7.2885 353.1968 13.45458146396408
Epoch: 2026-05-05T20:19Z
TLE epoch observation values (Epoch: 2026-05-05T20:19:45.216Z)
Latitude
0.00002°
Longitude
31.56918°
Altitude
889.428 km
Speed
7.507 km/s
True Right ascension
13h 20m 53s
True Declination
0° 00' 00"
Sunlit
Object was in full shadow at epoch
Visualization orbit readout
Latitude
Unknown
Longitude
Unknown
Altitude
Unknown
Speed
Unknown
Apparent Right ascension
Unknown
Apparent Declination
Unknown
Sunlit
N/A
Visualization observer readout
Local Sidereal Time
07:44:49
Azimuth
Unknown
Elevation
Unknown
Doppler factor
Unknown
Orbital elements
Apogee altitude
1,290.657 km
Perigee altitude
885.032 km
Semi-major axis
7,465.982 km
Eccentricity
0.02716
Inclination
63.3948°
RAAN
200.2236°
Arg. of periapsis
7.2885°
True anomaly
352.81521°
Mean anomaly
353.1968°
Eccentric anomaly
353.00732°
Mean motion
3.36444 °/min
Orbital period
107 mins
BSTAR
0.00018841
Loading maneuver chart data...
Computing Atmospheric mass density...
Loading historical data...
Loading historical data...
Loading historical data...
Loading historical data...
Loading historical data...
Loading historical data...
Loading historical data...

Documentation

Showing up to 5 results
|